| time (UTC) | temp C | wind direction | speed KPH | gust KPH | rain 1hr cm | rain 24hr cm | rain mn cm | humidity % | barometer mb |
| 20260504081552 | 8 | 0 | 0.0 | 4.8 | 0.00 | 0.00 | 0.00 | 68 | 1010.1 |
| 20260504044552 | 8 | 0 | 0.0 | 0.0 | 0.00 | 0.00 | 0.00 | 63 | 1010.6 |
| 20260504043051 | 7 | 0 | 0.0 | 3.2 | 0.00 | 0.00 | 0.00 | 64 | 1010.8 |
| 20260504041552 | 7 | 0 | 0.0 | 1.6 | 0.00 | 0.00 | 0.00 | 65 | 1010.9 |
| 20260504040057 | 7 | 0 | 0.0 | 0.0 | 0.00 | 0.00 | 0.00 | 66 | 1010.8 |
| 20260504034552 | 7 | 0 | 0.0 | 0.0 | 0.00 | 0.00 | 0.00 | 65 | 1010.7 |
| 20260504033057 | 7 | 0 | 0.0 | 0.0 | 0.00 | 0.00 | 0.00 | 64 | 1010.5 |
| 20260504031602 | 7 | 0 | 0.0 | 0.0 | 0.00 | 0.00 | 0.00 | 63 | 1010.6 |
| 20260504030053 | 7 | 0 | 0.0 | 1.6 | 0.00 | 0.00 | 0.00 | 62 | 1010.4 |
| 20260504024600 | 7 | 0 | 0.0 | 0.0 | 0.00 | 0.00 | 0.00 | 61 | 1010.3 |
| 20260504023051 | 7 | 0 | 0.0 | 0.0 | 0.00 | 0.00 | 0.00 | 59 | 1010.4 |
| 20260504021555 | 8 | 0 | 0.0 | 0.0 | 0.00 | 0.00 | 0.00 | 57 | 1010.6 |
| 20260504020054 | 8 | 0 | 0.0 | 0.0 | 0.00 | 0.00 | 0.00 | 55 | 1010.5 |
| 20260504014555 | 9 | 0 | 0.0 | 0.0 | 0.00 | 0.00 | 0.00 | 53 | 1010.6 |
| 20260504013104 | 9 | 0 | 0.0 | 0.0 | 0.00 | 0.00 | 0.00 | 50 | 1010.5 |
| 20260504011550 | 10 | 0 | 0.0 | 0.0 | 0.00 | 0.00 | 0.00 | 49 | 1010.4 |
| 20260504010055 | 10 | 0 | 0.0 | 4.8 | 0.00 | 0.00 | 0.00 | 47 | 1010.2 |
| 20260504004602 | 11 | 0 | 0.0 | 1.6 | 0.00 | 0.00 | 0.00 | 45 | 1010.1 |
| 20260504003057 | 11 | 27 | 0.0 | 4.8 | 0.00 | 0.00 | 0.00 | 44 | 1010.1 |
| 20260504001558 | 11 | 0 | 0.0 | 6.4 | 0.00 | 0.00 | 0.00 | 42 | 1009.9 |
| 20260504000056 | 11 | 5 | 3.2 | 8.0 | 0.00 | 0.00 | 0.00 | 41 | 1009.8 |
| 20260503234555 | 12 | 30 | 1.6 | 11.3 | 0.00 | 0.00 | 0.00 | 40 | 1009.7 |
| 20260503233054 | 12 | 360 | 3.2 | 14.5 | 0.00 | 0.00 | 0.00 | 38 | 1009.3 |
| 20260503231557 | 12 | 290 | 3.2 | 17.7 | 0.00 | 0.00 | 0.00 | 37 | 1009.0 |
| 20260503230053 | 12 | 270 | 1.6 | 11.3 | 0.00 | 0.00 | 0.00 | 36 | 1008.9 |
| 20260503224551 | 13 | 268 | 4.8 | 19.3 | 0.00 | 0.00 | 0.00 | 33 | 1008.5 |
| 20260503223058 | 13 | 316 | 3.2 | 19.3 | 0.00 | 0.00 | 0.00 | 32 | 1008.5 |
| 20260503221553 | 13 | 355 | 3.2 | 17.7 | 0.00 | 0.00 | 0.00 | 32 | 1008.4 |
| 20260503220100 | 13 | 279 | 3.2 | 17.7 | 0.00 | 0.00 | 0.00 | 31 | 1008.5 |
| 20260503214551 | 13 | 5 | 8.0 | 24.1 | 0.00 | 0.00 | 0.00 | 29 | 1008.5 |
| 20260503213055 | 13 | 360 | 4.8 | 24.1 | 0.00 | 0.00 | 0.00 | 31 | 1008.5 |
| 20260503211604 | 13 | 0 | 4.8 | 16.1 | 0.00 | 0.00 | 0.00 | 31 | 1008.5 |
| 20260503210055 | 13 | 312 | 4.8 | 20.9 | 0.00 | 0.00 | 0.00 | 31 | 1008.3 |
| 20260503204559 | 12 | 329 | 3.2 | 17.7 | 0.00 | 0.00 | 0.00 | 34 | 1008.5 |
| 20260503203055 | 12 | 0 | 3.2 | 16.1 | 0.00 | 0.00 | 0.00 | 36 | 1008.7 |
| 20260503201553 | 12 | 16 | 3.2 | 20.9 | 0.00 | 0.00 | 0.00 | 38 | 1008.8 |
| 20260503200056 | 12 | 347 | 8.0 | 22.5 | 0.00 | 0.00 | 0.00 | 37 | 1008.9 |
| 20260503194554 | 12 | 269 | 4.8 | 17.7 | 0.00 | 0.00 | 0.00 | 39 | 1009.1 |
| 20260503193059 | 12 | 272 | 3.2 | 17.7 | 0.00 | 0.00 | 0.00 | 38 | 1009.4 |
| 20260503191556 | 12 | 0 | 1.6 | 16.1 | 0.00 | 0.00 | 0.00 | 40 | 1009.6 |
| 20260503190055 | 12 | 275 | 4.8 | 12.9 | 0.00 | 0.00 | 0.00 | 41 | 1009.7 |
| 20260503184606 | 12 | 272 | 3.2 | 14.5 | 0.00 | 0.00 | 0.00 | 40 | 1009.8 |
| 20260503183054 | 11 | 335 | 6.4 | 19.3 | 0.00 | 0.00 | 0.00 | 43 | 1009.9 |
| 20260503181552 | 11 | 319 | 3.2 | 20.9 | 0.00 | 0.00 | 0.00 | 42 | 1010.0 |
| 20260503180055 | 10 | 13 | 4.8 | 12.9 | 0.00 | 0.00 | 0.00 | 44 | 1010.1 |
| 20260503174606 | 10 | 346 | 4.8 | 17.7 | 0.00 | 0.00 | 0.00 | 45 | 1010.2 |
| 20260503173057 | 10 | 355 | 4.8 | 20.9 | 0.00 | 0.00 | 0.00 | 45 | 1010.3 |
| 20260503171553 | 10 | 267 | 4.8 | 16.1 | 0.00 | 0.00 | 0.00 | 45 | 1010.3 |
| 20260503100110 | 4 | 20 | 1.6 | 6.4 | 0.00 | 0.00 | 0.00 | 74 | 1010.6 |